TimeEDT,TemperatureF,Dew PointF,Humidity,Sea Level PressureIn,VisibilityMPH,Wind Direction,Wind SpeedMPH,Gust SpeedMPH,PrecipitationIn,Events,Conditions,WindDirDegrees,DateUTC
12:15 AM,28.4,15.8,59,29.75,10.0,West,4.6,-,N/A,,Clear,260,2013-03-23 04:15:00
12:35 AM,28.4,15.8,59,29.75,10.0,West,3.5,-,N/A,,Clear,270,2013-03-23 04:35:00
1:15 AM,24.8,15.8,69,29.75,10.0,SW,4.6,-,N/A,,Scattered Clouds,230,2013-03-23 05:15:00
1:35 AM,26.6,17.6,69,29.75,10.0,South,4.6,-,N/A,,Clear,170,2013-03-23 05:35:00
1:55 AM,26.6,17.6,69,29.75,10.0,South,3.5,-,N/A,,Mostly Cloudy,180,2013-03-23 05:55:00
2:15 AM,24.8,15.8,69,29.74,10.0,Calm,Calm,-,N/A,,Overcast,0,2013-03-23 06:15:00
2:35 AM,24.8,15.8,69,29.73,10.0,Calm,Calm,-,N/A,,Overcast,0,2013-03-23 06:35:00
2:55 AM,24.8,17.6,74,29.73,10.0,Calm,Calm,-,N/A,,Overcast,0,2013-03-23 06:55:00
3:15 AM,24.8,15.8,69,29.73,10.0,SSW,3.5,-,N/A,,Overcast,200,2013-03-23 07:15:00
3:55 AM,23.0,14.0,68,29.71,10.0,South,4.6,-,N/A,,Scattered Clouds,190,2013-03-23 07:55:00
4:15 AM,21.2,15.8,80,29.71,10.0,Calm,Calm,-,N/A,,Clear,0,2013-03-23 08:15:00
4:35 AM,24.8,17.6,74,29.71,10.0,Calm,Calm,-,N/A,,Partly Cloudy,0,2013-03-23 08:35:00
4:55 AM,21.2,14.0,74,29.71,10.0,SSW,4.6,-,N/A,,Mostly Cloudy,200,2013-03-23 08:55:00
5:15 AM,24.8,17.6,74,29.71,10.0,Calm,Calm,-,N/A,,Mostly Cloudy,0,2013-03-23 09:15:00
5:35 AM,21.2,15.8,80,29.71,10.0,SW,4.6,-,N/A,,Mostly Cloudy,220,2013-03-23 09:35:00
6:15 AM,21.2,15.8,80,29.71,10.0,SW,3.5,-,N/A,,Clear,230,2013-03-23 10:15:00
6:35 AM,19.4,15.8,86,29.70,10.0,Calm,Calm,-,N/A,,Clear,0,2013-03-23 10:35:00
6:55 AM,19.4,15.8,86,29.70,10.0,Calm,Calm,-,N/A,,Clear,0,2013-03-23 10:55:00
7:15 AM,21.2,17.6,86,29.71,10.0,Calm,Calm,-,N/A,,Clear,0,2013-03-23 11:15:00
7:35 AM,21.2,15.8,80,29.71,10.0,SSW,3.5,-,N/A,,Clear,210,2013-03-23 11:35:00
7:55 AM,21.2,15.8,80,29.71,10.0,SSW,4.6,-,N/A,,Clear,200,2013-03-23 11:55:00
8:15 AM,26.6,19.4,74,29.71,10.0,WSW,5.8,-,N/A,,Mostly Cloudy,250,2013-03-23 12:15:00
9:15 AM,33.8,19.4,56,29.71,10.0,NW,15.0,23.0,N/A,,Scattered Clouds,320,2013-03-23 13:15:00
9:35 AM,33.8,17.6,52,29.71,10.0,WNW,10.4,21.9,N/A,,Mostly Cloudy,300,2013-03-23 13:35:00
9:55 AM,33.8,17.6,52,29.71,10.0,WNW,12.7,19.6,N/A,,Overcast,290,2013-03-23 13:55:00
10:15 AM,33.8,17.6,52,29.71,10.0,WNW,13.8,18.4,N/A,,Mostly Cloudy,300,2013-03-23 14:15:00
10:35 AM,33.8,17.6,52,29.70,10.0,WNW,12.7,21.9,N/A,,Mostly Cloudy,300,2013-03-23 14:35:00
10:55 AM,33.8,15.8,48,29.70,10.0,WNW,12.7,20.7,N/A,,Overcast,300,2013-03-23 14:55:00
11:15 AM,33.8,15.8,48,29.70,10.0,West,12.7,19.6,N/A,,Overcast,280,2013-03-23 15:15:00
12:15 PM,35.6,14.0,41,29.68,10.0,WNW,11.5,23.0,N/A,,Overcast,300,2013-03-23 16:15:00
12:35 PM,37.4,15.8,41,29.69,10.0,NW,18.4,23.0,N/A,,Overcast,310,2013-03-23 16:35:00
12:55 PM,37.4,15.8,41,29.68,10.0,NW,15.0,26.5,N/A,,Overcast,320,2013-03-23 16:55:00
1:15 PM,37.4,15.8,41,29.68,10.0,NW,16.1,26.5,N/A,,Overcast,310,2013-03-23 17:15:00
1:35 PM,37.4,15.8,41,29.67,10.0,NNW,16.1,24.2,N/A,,Mostly Cloudy,330,2013-03-23 17:35:00
2:15 PM,39.2,14.0,36,29.67,10.0,WNW,17.3,26.5,N/A,,Overcast,290,2013-03-23 18:15:00
2:35 PM,39.2,14.0,36,29.67,10.0,WNW,13.8,27.6,N/A,,Overcast,290,2013-03-23 18:35:00
2:55 PM,39.2,12.2,33,29.68,10.0,NW,20.7,33.4,N/A,,Mostly Cloudy,320,2013-03-23 18:55:00
3:35 PM,39.2,14.0,36,29.68,10.0,NNW,20.7,26.5,N/A,,Overcast,340,2013-03-23 19:35:00
3:55 PM,39.2,12.2,33,29.69,10.0,NW,16.1,26.5,N/A,,Overcast,310,2013-03-23 19:55:00
4:15 PM,39.2,12.2,33,29.68,10.0,WNW,19.6,25.3,N/A,,Mostly Cloudy,290,2013-03-23 20:15:00
4:35 PM,39.2,12.2,33,29.68,10.0,WNW,19.6,29.9,N/A,,Scattered Clouds,300,2013-03-23 20:35:00
4:55 PM,39.2,14.0,36,29.70,10.0,NW,15.0,26.5,N/A,,Clear,310,2013-03-23 20:55:00
5:15 PM,39.2,14.0,36,29.70,10.0,WNW,16.1,25.3,N/A,,Clear,300,2013-03-23 21:15:00
5:35 PM,39.2,14.0,36,29.71,10.0,WNW,13.8,23.0,N/A,,Mostly Cloudy,300,2013-03-23 21:35:00
5:55 PM,39.2,14.0,36,29.72,10.0,WNW,11.5,19.6,N/A,,Overcast,300,2013-03-23 21:55:00
6:15 PM,37.4,15.8,41,29.73,10.0,NW,6.9,18.4,N/A,,Overcast,320,2013-03-23 22:15:00
6:55 PM,37.4,15.8,41,29.74,10.0,NW,10.4,18.4,N/A,,Overcast,320,2013-03-23 22:55:00
7:15 PM,37.4,15.8,41,29.75,10.0,NW,5.8,-,N/A,,Mostly Cloudy,310,2013-03-23 23:15:00
7:35 PM,35.6,14.0,41,29.76,10.0,West,11.5,18.4,N/A,,Mostly Cloudy,280,2013-03-23 23:35:00
7:55 PM,35.6,15.8,44,29.77,10.0,Calm,Calm,-,N/A,,Overcast,0,2013-03-23 23:55:00
8:15 PM,35.6,15.8,44,29.77,10.0,West,5.8,-,N/A,,Overcast,280,2013-03-24 00:15:00
8:35 PM,35.6,15.8,44,29.78,10.0,NW,6.9,-,N/A,,Overcast,310,2013-03-24 00:35:00
8:55 PM,35.6,15.8,44,29.79,10.0,NW,5.8,-,N/A,,Overcast,310,2013-03-24 00:55:00
9:15 PM,35.6,15.8,44,29.79,10.0,WNW,10.4,-,N/A,,Mostly Cloudy,300,2013-03-24 01:15:00
9:35 PM,35.6,15.8,44,29.79,10.0,NW,5.8,-,N/A,,Mostly Cloudy,320,2013-03-24 01:35:00
9:55 PM,35.6,15.8,44,29.79,10.0,NW,12.7,17.3,N/A,,Mostly Cloudy,320,2013-03-24 01:55:00
10:15 PM,35.6,17.6,48,29.80,10.0,NW,3.5,-,N/A,,Partly Cloudy,320,2013-03-24 02:15:00
10:35 PM,35.6,15.8,44,29.80,10.0,NW,9.2,16.1,N/A,,Clear,320,2013-03-24 02:35:00
10:55 PM,33.8,17.6,52,29.80,10.0,NW,5.8,-,N/A,,Mostly Cloudy,320,2013-03-24 02:55:00
11:15 PM,33.8,15.8,48,29.80,10.0,West,6.9,16.1,N/A,,Mostly Cloudy,280,2013-03-24 03:15:00
11:35 PM,33.8,17.6,52,29.80,10.0,West,3.5,-,N/A,,Overcast,270,2013-03-24 03:35:00
11:55 PM,33.8,17.6,52,29.80,10.0,WNW,8.1,-,N/A,,Overcast,290,2013-03-24 03:55:00